Location: Mauries
(43.6188°N, 0.3322°W)
Time: 19:28:54
(UTC+00:00)

RUBIN 8/PSLV - Pass Details

Date: 14 January 2026
Orbit: 593 x 628 km, 98.1° (Epoch: 10 February)

Event Time Altitude Azimuth Distance (km) Brightness Sun altitude
Rises 05:53:28 0° 10° (N) 2,841 7.9 -17.5°
Reaches altitude 10° 05:55:39 10° 7° (N) 1,935 7.0 -17.1°
Maximum altitude 05:59:49 65° 286° (WNW) 656 4.4 -16.3°
Drops below altitude 10° 06:03:56 10° 205° (SSW) 1,926 7.0 -15.6°
Sets 06:06:07 0° 202° (SSW) 2,827 7.9 -15.2°
